Wind_Speed
8 8 7 6 5 5 6 7 7 7 7 6 6 6 5 5 5 4 3 2 5 6 7 9 9 5 3 4 4 6 9 7 6 8 9 12 11 8 7 6 5 5 5 4 5 6 6 6 4 2 1 2 7 8 6 7 6 3 1 1 3 3 3 5 9 5 2 8 12 12 14 12 8 10 12 10 12 12 12 15 15 15 18 16 14 14 12 11
8 7 6 5 6 6 7 8 7 8 7 7 5 4 3 3 4 4 4 5 7 7 9 12 9 3 5 7 7 7 8 8 9 12 12 11 9 8 7 5 4 3 3 2 4 6 5 5 3 2 1 5 8 5 5 6 7 4 0 1 3 2 2 2 6 5 1 8 13 11 13 11 8 9 11 9 10 12 12 14 16 16 17 18 18 16 15 14
8 7 7 7 7 8 9 9 9 9 7 5 4 3 2 3 3 4 5 6 7 7 11 12 6 3 8 10 10 10 9 8 10 13 12 9 8 7 6 5 4 3 2 2 4 6 5 3 2 2 4 8 8 6 6 6 6 4 1 2 3 2 3 2 4 4 1 6 13 11 11 10 7 8 9 9 9 10 13 15 15 17 18 18 19 17 16 16
8 8 9 10 11 12 12 11 10 8 6 4 3 2 1 2 3 4 3 4 5 7 10 8 2 10 11 10 10 10 9 9 10 12 8 7 8 7 6 5 4 4 3 3 4 5 5 2 3 4 8 8 6 7 7 7 5 3 3 3 4 3 4 4 4 3 2 7 12 10 9 8 8 10 10 8 8 10 16 20 20 19 17 16 17 18 17 18
11 12 14 14 14 13 12 10 9 7 6 5 3 2 1 0 2 2 2 3 2 6 7 6 8 12 11 9 7 3 2 3 8 9 6 7 7 6 6 5 4 5 4 3 4 4 4 3 4 4 8 6 5 5 5 7 7 6 3 3 4 2 2 5 5 5 5 9 11 10 9 7 7 11 12 11 10 10 14 22 26 23 17 14 16 19 18 18
15 16 16 14 13 12 10 9 8 7 6 4 3 2 2 1 1 2 3 4 2 5 8 11 12 10 8 6 3 1 2 2 6 8 6 6 7 6 6 4 3 3 3 3 4 4 5 4 3 4 6 5 6 5 4 5 3 5 3 3 3 1 2 6 5 5 7 10 11 10 8 5 7 9 11 15 20 19 16 18 22 23 21 18 17 19 19 20
17 16 14 13 11 10 8 7 7 6 6 6 6 6 6 5 4 1 3 6 6 6 12 15 15 15 13 12 10 12 14 10 9 8 7 6 5 5 5 4 2 1 1 2 3 4 4 4 5 9 7 4 6 6 7 8 7 6 5 3 3 3 4 7 4 6 9 9 10 9 7 6 8 8 7 17 29 29 24 22 20 19 21 22 21 22 23 23
16 14 13 11 9 8 7 6 7 8 8 9 10 11 13 13 11 7 4 8 8 7 9 10 12 15 16 15 16 20 19 14 11 10 8 7 5 4 3 3 1 0 2 4 5 5 4 6 12 11 6 4 5 4 5 9 12 9 5 2 3 5 5 7 5 8 9 7 9 7 8 8 8 8 9 22 32 29 28 27 26 23 22 23 24 25 26 27
14 13 11 8 7 6 6 7 9 11 13 14 15 16 16 16 15 12 7 6 9 8 5 5 7 9 8 6 10 16 15 14 13 12 11 9 6 3 2 1 1 2 2 4 6 5 4 8 9 6 7 8 6 4 3 3 6 6 5 4 5 5 4 6 5 7 7 5 6 6 9 8 8 8 13 26 29 25 26 25 27 29 29 29 29 29 30 30
12 10 8 6 5 5 6 9 12 15 16 16 16 14 13 13 13 13 11 4 2 7 4 2 4 4 2 4 10 11 10 13 12 10 11 11 8 6 4 1 1 3 4 5 5 4 4 6 9 11 15 12 7 6 7 4 7 9 10 9 8 6 4 4 4 5 5 4 4 7 9 8 6 4 11 18 14 13 16 16 19 23 29 32 32 33 33 33
9 7 6 5 5 6 9 12 15 17 17 15 14 12 11 12 12 12 9 9 8 6 5 4 6 7 9 14 20 12 10 14 11 9 7 6 6 8 9 7 4 3 2 3 4 5 7 12 15 11 9 9 10 11 11 11 12 11 10 9 8 5 3 3 3 3 3 3 2 5 10 11 5 4 17 21 14 13 14 14 16 18 23 28 30 32 32 33
6 5 5 6 7 8 11 15 17 17 15 13 11 10 11 12 11 9 6 8 13 17 16 16 18 18 19 24 25 15 13 16 14 12 8 4 4 8 13 15 13 8 2 4 12 13 15 13 7 4 8 11 8 7 10 12 9 8 6 4 4 1 1 3 2 1 2 2 1 3 9 11 9 12 23 21 17 17 16 19 19 19 22 23 26 28 30 31
5 6 7 8 8 10 13 15 16 15 13 11 8 8 10 10 10 10 9 9 13 18 16 15 16 14 17 22 19 14 14 15 15 16 15 12 10 9 12 13 13 12 5 7 13 11 9 4 1 11 19 12 5 7 11 9 6 6 4 1 2 2 3 4 2 1 3 3 1 2 6 5 9 19 22 15 16 17 17 20 21 21 23 23 24 27 29 30
6 7 9 10 10 10 12 14 15 13 11 8 5 5 6 6 8 9 9 8 8 9 8 10 11 11 17 17 12 13 13 12 14 17 20 21 18 14 14 12 13 14 10 10 12 10 10 7 10 18 19 14 13 14 10 5 3 3 1 1 1 3 2 4 3 3 4 4 4 3 5 6 6 11 14 14 18 18 18 21 20 21 22 23 25 27 30 31
7 6 8 9 10 11 12 13 13 11 8 4 3 4 4 4 7 7 9 10 9 8 8 9 9 14 21 15 8 10 11 13 15 17 19 21 21 20 20 19 19 19 18 18 17 17 15 13 15 17 14 16 16 9 4 2 2 2 2 2 1 3 1 3 4 4 4 2 5 5 5 8 10 7 7 12 15 14 16 19 18 21 24 26 28 29 32 32
7 5 6 9 10 11 11 12 11 8 5 2 3 4 6 7 7 8 10 12 12 11 12 13 12 16 17 10 7 9 9 11 14 15 16 16 16 16 16 17 17 17 17 17 15 13 11 10 16 15 9 9 6 2 4 3 1 1 2 2 2 2 2 1 3 3 4 2 5 8 6 7 7 4 2 4 7 8 11 17 21 25 29 30 30 29 30 30
8 5 6 8 10 11 11 11 9 7 5 2 3 6 10 10 9 10 11 11 11 10 12 15 14 14 13 6 6 8 8 8 7 7 7 7 8 8 9 9 9 9 10 10 7 6 6 8 11 9 5 4 1 0 2 2 2 2 2 2 2 2 3 2 1 2 3 4 6 8 8 13 13 11 12 12 12 14 16 22 25 24 26 27 27 27 26 26
9 6 6 8 10 11 10 10 9 7 4 2 3 6 6 5 5 7 7 6 4 2 4 6 4 5 10 8 6 6 6 5 4 4 4 4 3 3 3 3 5 4 3 5 6 6 7 8 5 3 3 3 1 1 2 1 0 1 2 2 1 2 4 4 2 1 2 5 7 8 9 16 19 18 21 20 17 17 19 22 22 22 24 25 25 25 23 23
9 8 6 8 10 10 10 9 7 6 5 6 8 8 8 8 7 6 7 6 4 2 2 8 8 5 6 7 8 9 8 6 5 4 4 5 4 3 2 3 4 2 2 2 6 8 6 5 3 3 2 2 2 3 3 3 2 1 0 2 3 3 5 5 2 1 1 4 8 11 12 15 18 18 20 18 13 14 18 19 20 23 27 26 24 23 21 22
7 8 8 8 10 10 10 9 8 10 13 15 14 13 14 16 12 12 18 20 18 13 10 13 16 13 8 6 6 9 10 9 6 3 3 4 4 4 4 3 3 6 5 2 3 6 3 3 3 1 1 2 2 2 3 2 1 1 1 2 3 5 6 3 1 2 0 5 8 10 11 15 18 17 20 20 12 13 19 19 19 23 26 24 21 21 21 21
5 5 8 8 9 10 10 10 13 16 15 10 7 5 7 9 7 10 19 21 19 19 17 16 16 13 11 8 6 6 7 10 9 6 4 4 2 3 4 4 3 6 5 3 1 2 1 2 3 1 2 2 1 1 2 1 1 0 1 2 3 4 6 2 1 1 1 3 5 4 8 15 17 16 21 21 14 15 20 18 17 19 21 22 21 20 21 21
4 2 5 8 9 11 12 14 16 14 9 7 7 10 12 14 15 18 19 15 14 18 18 16 15 13 12 10 8 6 5 8 11 11 8 5 4 3 4 5 4 3 2 2 1 1 1 2 2 1 2 3 3 2 3 3 1 1 1 3 4 2 5 3 2 1 2 3 5 4 8 15 17 18 21 21 18 18 18 17 17 18 18 21 21 20 21 22
2 1 2 5 7 10 14 16 14 9 9 12 14 17 18 18 17 18 17 12 11 14 14 14 15 15 12 11 9 8 8 8 10 12 10 7 8 8 7 6 4 2 2 3 0 0 1 3 3 4 4 3 2 2 3 3 2 3 1 3 4 2 2 3 2 1 4 4 6 8 10 13 15 15 15 15 15 15 15 16 20 22 22 22 22 21 21 22
4 3 3 3 5 8 11 12 11 8 9 11 11 12 12 11 9 9 10 8 6 8 10 12 14 15 13 11 8 7 11 11 9 12 12 7 7 7 6 4 2 2 3 5 2 2 2 3 3 4 2 0 2 3 4 4 2 3 4 4 6 3 3 5 3 4 5 4 3 6 9 9 6 6 6 3 4 7 8 10 15 19 22 23 22 21 22 22
6 6 6 5 5 7 7 9 10 8 8 6 5 5 5 8 6 4 3 4 4 5 7 7 9 12 13 11 6 3 7 10 11 13 12 9 5 3 4 3 2 1 0 3 2 3 3 2 3 3 1 2 4 3 3 4 3 1 4 5 6 5 5 7 6 7 5 3 1 3 7 5 1 3 6 1 1 5 3 5 11 15 18 22 23 21 21 21
9 10 9 7 7 7 8 9 11 10 10 8 7 8 4 5 9 7 2 2 2 5 6 5 6 8 11 12 8 1 2 4 9 13 11 10 7 2 3 3 2 2 1 1 1 1 2 2 2 1 1 3 4 3 3 3 3 1 0 1 2 3 4 6 5 4 4 3 0 0 5 7 6 6 5 3 5 8 5 5 11 13 15 20 22 21 20 20
10 12 12 11 9 9 11 10 10 12 14 12 10 11 10 4 10 9 3 1 3 4 5 5 4 6 9 12 10 2 0 3 4 9 12 9 8 3 1 1 1 3 2 1 1 1 3 2 2 1 2 4 4 3 3 3 3 1 1 2 1 2 5 4 3 4 4 5 2 2 2 6 8 5 1 3 7 10 7 6 8 10 14 19 21 20 19 20
10 13 14 14 12 12 12 9 8 12 12 12 11 12 13 8 10 8 1 2 3 3 3 4 3 6 7 8 11 6 3 5 2 6 11 7 8 5 2 2 1 2 2 2 3 1 3 2 3 4 3 4 2 2 2 3 3 2 2 2 1 2 3 2 3 4 2 4 3 3 2 4 7 4 2 1 6 8 7 6 5 6 10 13 16 17 18 19
9 12 14 15 15 14 12 8 7 9 9 9 10 10 11 9 9 4 1 2 2 2 3 5 4 8 9 4 8 11 7 7 5 6 8 6 7 5 3 3 4 5 2 1 2 1 0 1 1 3 3 2 2 3 1 2 2 1 2 0 1 1 1 1 3 3 1 4 3 2 1 4 7 6 1 1 3 5 5 4 4 7 11 13 13 15 18 19
9 11 13 15 16 15 13 9 7 9 9 8 7 7 8 6 4 0 2 1 2 3 5 5 4 9 11 2 4 11 7 6 9 7 6 6 7 7 5 4 4 4 1 0 2 1 1 1 1 1 1 1 3 2 2 2 1 1 2 3 2 3 2 1 2 1 2 4 1 2 1 3 5 6 2 1 1 1 2 5 7 9 14 17 18 18 17 17
8 10 12 14 15 14 13 10 9 10 10 10 7 5 5 2 1 2 2 1 1 4 4 4 3 6 8 2 2 8 5 6 11 9 6 5 6 8 5 2 2 0 1 1 1 1 0 1 1 0 1 2 1 1 2 2 1 1 3 3 4 3 2 2 2 2 4 3 2 2 2 3 5 6 2 2 3 2 3 6 9 10 14 18 20 21 19 16
8 9 10 11 13 13 11 9 8 9 9 9 7 5 4 1 2 2 1 2 2 3 2 2 2 3 4 1 1 5 4 4 9 7 4 3 4 6 5 3 3 2 1 2 2 2 1 2 2 2 2 1 1 2 1 3 2 2 3 3 5 4 1 3 2 2 4 1 3 2 2 3 8 9 8 9 11 7 5 8 11 12 14 16 17 19 19 19
9 9 9 10 11 11 10 8 7 7 7 7 8 4 2 2 2 1 2 3 2 3 2 2 2 2 3 2 2 4 2 2 6 4 1 1 1 3 2 2 2 2 2 3 3 4 1 2 2 1 1 2 2 3 2 1 1 2 3 3 4 4 3 4 3 2 4 1 3 2 1 5 7 6 7 10 11 8 8 14 17 15 14 12 13 16 18 19
10 9 9 9 10 9 8 8 8 7 8 9 7 2 3 3 1 0 1 2 2 3 2 2 3 2 1 2 3 4 1 1 4 3 1 1 1 2 2 2 3 2 2 1 1 3 2 1 1 1 1 2 1 2 3 3 2 1 1 2 3 3 4 5 3 3 6 4 1 2 1 4 3 4 3 6 10 13 13 15 14 13 11 7 10 15 18 21
10 9 8 8 9 9 9 9 8 7 10 9 3 2 3 2 1 1 0 1 2 2 1 0 2 2 1 2 2 2 1 2 3 2 2 2 1 2 2 3 5 3 2 2 1 1 3 2 2 2 2 2 1 1 1 3 2 1 0 2 3 2 3 3 2 2 4 5 2 2 3 4 4 9 9 5 7 8 8 7 7 8 9 7 10 17 22 25
10 9 9 8 9 9 9 8 7 8 10 6 3 4 2 1 1 1 1 2 1 2 3 1 1 2 1 1 1 3 1 1 3 3 2 2 1 2 2 2 4 4 3 3 2 1 3 3 1 1 1 2 1 1 1 3 2 0 1 2 1 2 3 2 1 1 0 4 3 1 4 4 4 8 7 3 2 2 2 4 5 11 13 9 13 22 28 30
11 9 9 8 8 8 8 7 6 8 8 3 4 3 0 1 1 2 3 3 2 2 3 1 2 3 2 1 3 4 3 2 2 3 2 2 1 2 2 2 2 3 2 1 1 1 3 5 1 1 1 1 1 2 1 1 2 2 2 1 0 2 2 1 2 2 2 5 4 1 5 6 3 4 2 3 2 2 4 5 7 12 14 13 17 25 33 36
11 12 12 10 7 7 8 7 7 8 6 5 5 3 1 1 3 3 3 4 2 2 2 2 3 3 2 2 3 4 5 4 4 3 3 2 2 1 1 1 1 0 1 2 1 1 2 5 1 1 3 1 0 3 2 1 0 3 2 1 0 3 2 1 2 3 3 5 4 3 5 5 4 4 2 3 5 9 11 8 6 8 12 15 21 28 36 40
7 10 14 12 8 8 7 7 7 6 5 5 3 2 2 2 3 3 3 3 2 1 2 3 2 1 1 1 2 2 3 4 4 3 2 2 2 0 1 2 2 3 3 2 1 0 1 3 2 3 3 2 1 3 3 2 2 1 2 1 0 2 3 2 1 2 3 5 6 4 5 6 5 4 2 7 10 12 13 10 7 8 12 17 22 29 37 40
5 7 12 11 9 10 8 7 7 6 5 3 2 2 1 1 1 2 2 2 0 0 1 1 1 1 1 1 1 1 1 1 1 1 1 0 2 1 2 1 1 1 1 1 1 1 1 2 4 2 2 3 2 2 2 2 2 2 3 3 2 2 2 3 2 1 2 5 5 2 5 9 5 2 1 9 12 10 10 10 11 15 19 21 25 32 37 39
6 5 9 10 9 8 8 10 12 10 4 2 2 2 1 1 1 0 1 2 1 2 2 2 1 1 1 0 1 1 1 0 1 1 0 1 1 1 2 1 2 2 1 1 0 1 1 2 4 4 3 5 3 1 2 2 2 2 4 3 2 2 1 4 4 0 1 3 3 2 5 10 5 3 2 8 8 7 8 9 14 21 25 25 28 35 37 39
12 6 7 10 10 8 12 12 9 5 3 2 2 2 2 2 1 1 2 2 2 2 2 1 2 1 0 1 1 1 1 1 1 0 1 1 1 1 1 1 1 1 1 1 1 1 1 2 4 6 7 5 3 3 3 4 4 4 3 2 1 1 2 5 5 2 1 1 1 1 4 9 5 3 1 4 3 6 11 13 16 22 26 26 29 36 39 42
19 12 9 9 10 12 15 9 4 4 4 2 2 3 2 2 2 2 2 3 2 2 2 1 1 1 1 0 1 1 1 1 1 1 1 2 1 1 2 1 1 1 1 0 1 2 0 2 3 6 7 2 3 3 2 1 2 3 3 0 0 1 1 2 3 2 3 3 2 2 4 9 8 2 3 2 6 13 17 15 15 19 24 26 29 35 40 44
25 22 20 13 8 10 10 4 1 3 2 2 3 3 3 4 4 3 2 3 3 1 1 1 1 1 1 0 0 1 1 1 0 0 0 2 1 0 1 1 2 1 1 0 1 2 1 1 2 6 8 3 1 1 0 1 1 3 2 2 1 1 3 0 2 1 3 6 6 6 6 9 10 5 5 10 14 19 22 18 14 16 22 28 33 38 42 44
17 18 23 22 16 15 11 6 5 5 2 3 3 2 2 3 5 4 2 3 4 2 1 1 1 1 1 0 0 0 1 1 1 0 0 2 2 1 0 1 2 1 2 1 1 0 2 1 2 4 7 6 6 7 5 2 3 4 3 2 2 1 2 2 3 3 5 4 2 6 9 11 14 16 18 19 17 20 25 26 21 20 24 29 34 39 42 44
6 5 10 18 22 24 20 12 9 7 3 2 3 2 2 1 2 5 3 3 4 4 2 1 1 1 0 0 1 1 1 0 1 1 1 3 1 0 1 0 2 1 1 1 1 0 1 1 3 5 7 7 9 11 7 5 8 12 11 4 3 4 2 2 3 5 5 2 3 10 12 11 17 20 18 19 19 20 24 27 28 29 31 33 36 40 42 41
7 3 2 5 13 18 18 15 12 7 3 1 2 1 3 1 1 3 3 3 3 3 2 1 1 1 1 2 2 1 2 1 0 0 3 3 1 1 2 2 1 1 1 2 1 1 0 2 2 4 9 10 10 15 14 9 12 16 16 11 3 5 4 5 9 9 3 2 8 13 11 9 14 19 18 18 20 20 21 26 30 32 35 39 40 41 41 39
7 5 5 6 5 5 7 10 12 11 7 4 2 1 2 2 2 2 2 2 3 3 2 1 3 3 1 2 1 1 2 2 1 1 1 1 2 2 2 4 3 2 2 1 0 1 1 3 0 1 9 11 11 16 17 13 13 12 13 15 10 4 7 9 14 13 6 6 12 15 16 15 16 18 18 19 20 20 22 26 29 31 34 38 38 38 39 41
13 10 8 10 8 5 4 5 8 12 10 6 3 2 2 3 3 2 2 2 1 3 3 2 3 3 1 2 1 1 1 2 3 3 1 1 2 2 1 1 2 2 2 0 1 1 1 2 1 1 9 12 10 11 11 9 9 10 12 14 11 9 10 12 16 14 10 13 18 19 21 20 17 16 16 19 23 24 24 24 26 30 34 35 35 35 37 40
15 13 12 16 14 10 8 5 4 7 7 6 4 2 2 2 2 2 2 2 2 2 3 3 4 3 1 2 2 2 2 1 4 4 1 0 2 1 0 0 1 1 1 0 1 0 1 1 1 1 7 11 6 4 6 6 7 11 15 12 9 10 11 10 11 10 8 12 16 16 16 15 13 12 15 21 25 26 24 23 25 30 34 34 32 33 37 39
20 17 16 17 11 9 9 6 4 3 3 5 4 1 1 2 2 2 1 2 1 2 3 4 5 2 1 2 3 4 4 4 7 8 4 3 3 2 1 1 1 1 1 1 0 0 0 1 1 1 6 8 2 2 9 11 8 9 11 11 7 7 7 6 6 5 6 7 9 9 9 8 8 13 19 24 27 26 24 22 23 28 34 34 31 31 35 38
19 16 16 18 9 7 8 6 5 4 2 3 4 2 2 3 2 1 0 1 1 2 4 4 4 2 1 2 3 5 8 10 11 13 10 8 8 7 6 5 4 4 2 1 0 0 0 1 1 2 4 7 5 7 13 14 9 2 2 5 6 6 7 7 5 6 8 6 6 6 7 8 12 15 17 19 23 24 23 23 24 29 33 32 29 29 33 37
Wind_Direction
133 137 140 147 146 142 140 141 140 133 135 131 131 139 147 165 181 194 194 265 305 322 337 336 327 311 250 183 125 83 68 71 115 134 114 80 73 81 84 94 110 122 130 138 144 144 141 160 180 136 81 41 60 66 64 58 52 63 134 121 127 162 170 171 174 164 112 152 163 171 185 197 189 197 209 217 227 234 245 238 231 226 221 221 227 235 241 248
139 141 142 138 132 134 135 138 138 132 133 130 131 141 155 189 206 215 231 279 291 305 333 340 328 291 197 164 126 114 88 81 111 105 85 73 77 83 81 89 92 98 119 140 157 155 158 181 174 149 159 69 63 64 65 48 41 46 47 90 119 127 99 147 159 152 153 155 162 171 184 201 197 188 200 216 224 223 239 238 231 234 228 225 230 235 240 247
140 136 132 129 130 132 133 134 131 130 131 129 133 145 195 225 229 241 259 278 287 312 338 341 325 166 153 148 122 107 93 86 89 74 70 79 82 81 75 80 78 86 103 131 161 168 178 193 162 128 106 82 62 70 65 38 40 34 357 95 108 87 83 121 157 159 245 157 160 168 182 203 211 191 196 220 228 221 231 230 222 228 227 225 230 233 239 247
133 130 128 126 127 126 128 127 126 128 123 121 127 138 204 231 243 250 261 268 296 334 345 351 88 130 124 129 123 105 88 76 56 46 64 78 74 70 59 64 71 80 89 122 152 166 176 172 149 125 97 79 47 69 46 15 44 37 10 72 101 128 118 134 174 179 217 172 165 163 174 205 218 204 204 218 233 229 231 229 223 223 225 227 232 235 239 245
130 130 127 125 123 122 122 122 120 119 117 121 124 126 130 179 234 222 230 242 328 359 9 50 107 125 123 123 129 114 69 67 39 37 63 62 59 57 48 51 63 84 87 113 142 160 165 156 154 117 82 65 25 68 31 14 70 67 30 47 79 142 130 134 176 190 184 167 162 162 173 204 209 210 218 217 228 233 231 231 229 229 229 231 234 238 241 243
130 128 126 124 121 120 118 118 119 120 125 127 118 111 80 53 259 223 215 185 116 51 64 85 97 111 120 122 149 142 90 80 29 36 58 48 46 42 35 38 58 99 99 117 145 162 166 186 173 91 72 61 31 58 33 4 80 93 75 42 50 13 106 138 173 184 172 165 166 174 189 209 206 221 229 225 234 239 241 241 238 237 237 237 238 242 246 248
129 128 126 124 120 120 118 120 125 127 126 120 109 94 77 62 51 65 172 153 138 96 84 89 95 98 98 102 113 100 84 64 33 34 41 30 29 23 17 17 21 132 180 186 190 182 182 207 140 99 89 85 63 68 57 49 61 88 106 59 54 61 104 142 167 171 166 174 180 183 205 219 216 232 245 238 240 243 249 252 249 246 241 240 241 245 251 256
130 128 127 124 122 120 121 126 127 129 124 115 103 87 76 67 62 69 130 158 158 129 96 90 104 111 105 104 100 81 59 30 24 30 26 18 14 6 6 8 15 90 233 208 193 190 186 160 130 102 78 78 88 89 72 71 58 59 98 100 89 75 101 137 145 163 164 187 191 192 225 231 230 249 267 255 252 254 257 257 254 252 248 245 245 249 253 257
131 129 128 123 123 120 125 132 130 131 123 113 102 92 85 76 67 65 89 163 183 170 127 90 129 134 118 109 88 67 34 10 17 21 19 23 20 5 348 336 67 85 114 149 154 166 161 147 140 129 119 105 98 87 26 40 52 53 93 101 103 89 100 126 129 154 163 188 196 221 245 242 246 267 270 262 263 264 262 260 257 253 252 251 253 256 257 258
133 130 127 121 123 122 128 135 135 131 123 116 110 104 93 77 62 56 60 66 180 181 162 110 158 152 160 128 90 69 25 21 23 17 24 32 46 59 53 76 159 116 119 130 143 161 179 154 132 125 119 101 78 60 25 43 98 99 101 89 84 89 93 117 133 150 176 204 218 245 260 258 247 260 264 262 263 257 257 259 259 255 252 253 255 257 259 259
136 131 126 125 127 126 132 137 138 133 125 120 113 103 85 66 57 54 59 60 68 128 149 132 121 112 134 107 85 72 38 40 35 30 35 29 52 58 56 74 95 111 171 173 141 131 138 132 122 114 102 95 84 67 66 93 107 106 107 87 66 67 88 129 159 153 193 223 245 265 275 263 221 218 251 257 261 258 262 263 263 261 256 255 256 258 260 261
143 137 131 131 130 129 137 143 141 136 130 123 110 89 71 61 63 64 75 88 92 106 111 110 108 106 108 86 73 71 55 50 45 44 48 40 58 60 65 73 79 82 105 134 117 121 128 127 124 106 108 117 106 78 92 102 102 97 93 82 72 69 161 174 181 166 220 239 282 288 279 251 200 220 247 253 258 262 266 265 262 259 258 260 260 260 262 264
142 138 136 137 135 133 142 149 146 142 137 126 105 79 65 66 79 80 84 104 111 112 111 106 106 105 94 75 67 72 63 58 58 59 62 64 69 76 78 76 78 83 89 112 113 121 126 126 176 119 116 113 102 118 113 95 91 92 57 33 138 232 211 175 178 197 229 232 211 264 286 260 200 222 240 246 249 257 265 264 263 261 264 266 266 266 267 268
123 128 135 141 141 139 145 152 151 147 143 129 94 60 47 71 96 87 79 96 111 113 118 108 105 103 93 86 79 75 69 70 71 69 70 72 75 80 84 83 79 80 81 88 94 98 99 118 132 113 103 99 108 117 107 74 64 89 351 289 170 262 174 146 169 188 217 208 182 226 276 277 251 232 237 250 254 259 263 262 264 267 271 273 272 272 271 272
99 110 124 134 140 144 148 153 156 154 146 123 70 33 35 96 114 95 84 89 93 101 113 106 98 97 94 92 87 78 76 79 76 75 78 79 79 79 80 80 78 77 77 79 84 93 103 120 114 94 88 103 114 118 103 79 54 54 249 199 168 262 216 145 175 201 236 191 178 222 269 274 284 287 260 256 255 252 256 262 266 270 276 278 277 276 274 274
78 89 114 127 136 146 153 160 164 165 161 115 46 53 82 108 115 109 103 94 93 99 100 92 88 91 93 90 79 77 82 85 80 80 80 78 77 76 74 73 73 74 75 80 87 96 106 113 97 85 89 104 107 107 112 133 143 112 272 257 199 241 281 215 155 193 252 215 196 224 265 284 281 296 275 243 245 246 261 272 274 276 280 282 282 281 279 278
68 81 123 134 139 145 151 160 166 165 161 116 85 108 109 105 105 111 112 103 98 97 88 85 83 76 74 77 72 64 70 80 85 88 77 68 66 63 68 67 64 68 69 74 85 92 93 94 90 85 81 81 39 243 158 203 196 168 227 254 218 229 267 279 149 151 214 225 229 221 239 266 266 266 267 259 258 267 274 276 277 277 278 282 286 286 284 283
64 76 124 143 145 147 150 152 153 152 144 123 132 141 128 116 131 127 124 123 103 80 59 48 40 64 62 62 62 53 62 72 78 84 64 52 41 32 56 43 28 50 68 60 55 57 71 80 94 115 79 65 33 306 259 267 47 192 227 249 273 232 238 267 268 147 180 222 239 231 238 261 268 269 268 263 257 261 267 271 274 273 276 282 285 285 283 283
65 68 107 146 150 148 152 146 140 141 131 119 120 122 116 110 117 108 106 117 86 63 50 34 45 99 93 69 64 61 60 56 54 66 56 40 33 20 0 337 354 39 76 46 36 37 53 84 105 122 82 42 15 342 321 356 18 58 47 279 292 278 256 260 272 90 219 250 244 238 244 260 271 274 274 269 250 250 261 264 265 269 278 283 281 278 277 277
71 65 84 131 154 150 147 139 128 122 116 115 111 109 109 98 87 76 79 83 79 81 86 69 72 91 99 85 70 63 56 49 43 32 3 9 30 39 21 19 51 63 55 0 11 28 39 99 86 47 13 350 332 322 326 342 349 98 118 264 269 272 277 266 153 90 178 275 258 242 252 263 268 271 275 273 254 248 258 255 254 263 274 277 274 273 271 273
77 65 71 97 136 145 139 132 128 120 110 109 110 117 110 86 83 91 81 76 76 80 80 76 79 84 83 79 71 71 67 56 49 40 15 11 37 32 29 51 72 60 40 330 303 19 13 79 68 357 317 330 334 218 247 265 283 337 208 273 272 251 272 281 120 98 141 263 266 252 268 266 265 266 270 271 257 248 252 246 247 258 268 268 264 267 270 273
81 71 67 79 108 130 133 135 135 124 97 84 100 109 103 96 99 100 94 87 76 75 75 75 75 72 71 69 65 71 81 61 46 43 43 45 57 58 58 60 63 65 15 321 228 121 61 66 67 97 120 100 91 161 236 256 243 253 200 271 285 280 284 281 103 94 168 233 278 310 297 276 269 267 264 264 257 251 251 243 247 256 258 257 257 264 270 274
121 134 99 93 105 127 137 141 141 124 94 95 104 104 100 100 100 95 98 100 79 66 66 66 61 55 52 49 49 58 69 55 26 27 37 54 68 71 76 65 58 80 2 357 337 142 80 68 80 127 132 110 104 175 228 246 220 232 257 278 287 8 312 272 73 53 204 230 292 309 300 280 271 267 259 257 255 255 256 250 251 251 247 248 254 262 269 273
177 210 209 155 137 144 148 150 153 138 113 109 113 110 98 93 98 96 95 100 90 60 50 51 45 40 36 28 31 52 62 58 28 18 27 46 69 65 69 67 55 80 25 5 32 80 70 53 90 134 137 335 231 200 213 239 245 227 224 253 279 305 278 263 328 322 249 213 276 297 288 272 262 269 262 234 234 251 258 260 257 247 241 244 251 260 267 271
198 200 216 218 188 178 171 173 183 173 151 149 160 157 106 67 57 59 80 105 96 35 23 35 33 29 22 12 14 49 62 57 36 22 24 34 45 76 83 62 21 84 10 344 34 82 66 69 120 139 164 235 235 230 220 242 280 252 213 237 276 299 288 277 311 323 281 218 168 314 301 283 229 259 266 268 291 276 264 264 263 249 242 246 250 258 265 271
216 199 201 212 202 195 193 201 212 210 211 220 221 219 211 34 21 14 14 123 76 359 355 13 18 16 11 6 9 67 100 45 27 22 24 27 30 102 114 55 32 73 150 1 32 111 77 94 154 225 241 229 247 249 208 230 276 301 231 273 285 298 287 285 303 298 286 301 150 305 295 289 294 284 279 338 320 294 278 250 255 252 249 247 249 258 265 270
216 200 197 199 196 196 199 211 220 216 224 227 220 223 227 291 355 357 335 108 54 351 345 359 10 14 7 7 14 62 252 339 2 18 17 21 28 52 118 36 47 75 115 163 334 151 125 121 185 231 247 243 261 262 184 201 276 315 29 358 339 278 273 276 283 257 286 324 293 173 233 272 290 293 1 2 310 293 284 262 249 246 252 252 252 260 266 270
200 196 194 193 193 193 197 212 215 208 219 224 220 222 226 263 329 340 318 103 20 345 352 348 352 359 350 10 31 56 40 1 4 4 6 22 26 29 79 59 107 99 110 225 305 62 152 195 199 192 227 247 283 2 136 188 278 351 47 350 339 290 280 238 255 256 284 313 280 151 158 264 276 267 141 37 304 298 295 289 279 263 270 271 263 262 268 273
177 186 189 192 193 193 197 209 209 204 216 220 217 219 227 265 309 323 120 101 347 337 345 339 330 339 336 350 31 34 35 26 27 0 8 35 19 20 105 100 114 116 88 267 288 348 167 270 208 204 237 275 30 30 40 216 292 39 112 15 123 154 259 194 253 273 234 274 271 128 126 282 285 284 250 119 296 290 287 293 300 303 307 304 291 281 280 280
161 174 183 189 192 195 202 210 214 213 216 212 211 221 233 271 299 150 79 36 340 336 326 340 338 336 343 332 23 20 27 20 12 7 29 49 27 39 94 112 109 125 107 20 247 267 357 357 324 253 273 28 69 65 21 2 15 101 210 256 231 190 187 188 230 270 248 249 221 84 356 294 295 296 274 220 335 332 304 305 300 304 310 310 310 309 300 287
150 163 175 185 191 196 202 211 225 223 221 222 220 217 214 261 331 105 64 352 329 342 333 1 3 349 5 41 0 4 7 8 9 13 28 32 25 31 47 74 42 179 180 134 234 235 190 201 179 116 101 73 111 133 78 78 101 256 270 279 277 239 189 200 190 187 253 263 104 82 304 259 257 270 262 286 298 241 235 281 290 300 305 310 318 323 320 304
140 152 167 177 187 196 203 215 223 215 219 221 207 192 185 190 20 76 12 301 327 0 4 6 351 6 8 357 14 355 338 358 11 23 26 7 27 27 16 7 354 329 13 24 318 298 213 168 95 88 112 87 276 262 153 141 161 256 273 284 293 301 284 260 252 217 255 270 109 114 321 260 245 257 273 283 282 261 230 248 266 280 288 304 323 329 328 320
136 146 159 168 179 190 199 202 195 191 197 186 171 168 125 83 49 75 270 311 7 4 353 314 316 345 319 310 31 352 310 356 2 16 42 334 60 54 49 37 347 321 353 0 330 332 355 120 94 161 131 64 288 288 297 225 225 261 289 312 306 322 323 289 287 274 275 300 121 132 324 276 263 266 251 256 276 282 269 264 266 267 271 294 324 328 327 325
126 135 151 163 172 180 180 169 162 163 164 157 160 153 50 72 84 78 280 309 0 344 341 314 309 314 324 14 16 335 283 75 2 349 334 332 69 56 72 63 12 348 312 314 350 354 332 326 37 172 1 4 285 307 329 310 297 283 332 322 291 294 290 287 302 297 299 316 172 152 248 253 284 328 263 249 283 287 281 275 268 265 263 282 324 331 330 328
105 120 143 153 154 163 162 152 148 148 155 154 133 49 67 94 230 212 335 298 318 325 308 338 319 299 66 38 23 6 24 47 11 347 350 6 31 24 28 26 12 4 318 326 14 15 285 285 40 34 351 343 304 348 346 292 280 144 101 274 276 306 293 289 322 322 313 309 267 194 236 238 275 297 288 287 290 276 274 271 261 284 290 292 324 334 333 331
85 105 124 135 144 153 155 153 150 148 159 161 74 52 83 90 265 193 25 337 329 329 303 287 355 341 4 354 38 55 39 328 343 340 25 44 35 31 22 16 14 7 4 355 353 18 306 289 74 52 13 59 3 329 319 304 305 152 270 287 324 336 303 285 291 97 187 275 273 194 259 279 302 288 284 322 302 219 255 273 292 323 321 312 323 330 329 329
74 89 101 115 138 155 164 164 158 159 161 133 69 75 142 15 11 2 7 351 326 325 314 305 22 6 350 329 2 358 328 312 339 337 20 47 34 42 18 33 42 13 18 351 292 62 298 285 353 75 249 72 14 282 237 336 314 275 284 353 39 259 268 266 276 276 240 262 276 267 274 288 312 301 327 37 6 330 318 312 328 335 331 323 322 325 327 328
72 72 74 80 108 147 164 154 147 158 144 83 82 100 56 16 19 3 3 0 335 309 343 13 25 10 349 353 359 337 327 344 353 347 8 16 32 54 10 41 107 159 146 191 217 90 262 278 323 165 238 291 310 255 243 129 173 278 278 62 287 259 247 203 265 289 286 283 280 277 291 275 231 239 293 342 342 329 322 328 345 336 328 323 320 324 327 329
86 60 47 49 81 112 132 146 149 149 101 68 82 97 46 30 33 16 5 5 329 297 26 29 25 26 40 6 335 323 355 359 347 355 21 8 351 150 190 205 202 190 176 190 236 126 212 279 294 188 205 284 246 216 232 155 128 205 222 172 89 272 267 261 280 292 273 278 283 299 317 290 226 187 264 314 327 330 330 337 340 327 321 320 320 324 327 329
99 57 35 42 80 91 98 120 105 74 63 62 75 77 41 15 37 15 24 54 128 46 87 163 175 59 105 179 241 270 45 52 289 348 33 302 276 232 158 201 256 123 202 260 292 273 210 245 277 231 185 274 275 192 230 228 175 195 216 214 198 195 277 289 254 215 267 271 274 287 292 286 275 140 280 313 328 341 347 341 329 326 325 324 324 325 327 328
91 66 31 45 71 78 87 83 64 58 67 88 84 88 144 166 164 198 50 79 90 71 121 167 129 105 197 179 179 227 279 262 204 232 247 192 266 349 75 50 4 27 309 270 270 299 285 242 278 305 292 286 302 45 358 318 302 282 260 253 246 208 256 276 257 171 355 272 270 291 283 284 291 110 300 319 341 354 354 337 322 323 324 323 324 325 326 324
79 66 25 50 69 82 91 74 41 44 84 83 85 95 138 154 143 16 26 17 5 35 79 80 32 45 190 343 334 234 264 289 256 270 258 230 280 328 1 90 49 49 295 309 55 25 335 276 279 283 274 285 11 54 16 339 325 302 282 300 346 303 262 273 282 339 0 270 19 32 278 279 286 101 11 327 358 335 328 323 315 316 317 317 318 321 323 321
71 61 41 65 87 89 89 80 20 42 69 76 93 77 76 83 24 18 21 7 0 14 51 61 15 41 85 289 270 245 241 233 241 311 274 235 236 295 274 256 80 97 243 270 68 60 321 256 281 281 271 264 99 115 115 36 328 282 268 163 142 315 3 298 295 343 309 270 247 244 257 275 289 73 122 303 324 316 316 314 305 307 311 313 313 315 318 320
74 62 50 58 101 100 85 91 129 76 79 123 93 61 61 61 37 30 13 9 23 30 52 65 21 45 66 2 328 294 329 1 243 320 285 236 218 285 281 205 138 73 16 70 43 21 293 264 327 309 308 325 10 348 54 148 252 266 253 104 66 22 61 28 223 143 279 264 247 253 261 269 284 310 314 312 318 316 317 319 310 306 312 314 315 315 317 320
79 65 54 55 81 98 89 96 120 115 143 133 88 39 44 63 40 35 36 31 32 28 60 67 354 31 68 190 123 1 348 0 319 328 352 263 231 173 343 184 146 81 5 104 113 350 300 317 309 304 319 326 319 322 328 326 312 282 252 112 106 144 137 253 271 247 253 257 232 250 259 270 287 301 306 311 318 318 321 326 326 321 317 314 313 315 318 321
80 70 51 50 64 76 79 84 100 113 141 126 91 24 17 76 35 27 36 45 35 30 54 56 313 294 47 302 354 344 307 330 15 15 282 260 248 64 4 64 144 133 41 100 116 40 347 264 247 257 268 276 288 293 299 323 309 290 287 287 158 162 180 223 263 253 249 283 271 254 256 273 289 297 304 313 319 320 323 329 331 328 324 318 314 316 318 319
73 60 21 44 56 61 63 61 67 88 126 123 99 21 4 9 341 19 33 38 29 28 57 79 32 10 326 338 354 306 281 288 57 335 262 256 291 357 24 59 84 159 118 92 64 30 325 261 257 251 251 252 271 281 285 293 284 280 288 291 238 161 164 201 231 240 242 318 277 267 268 274 285 296 305 310 314 320 326 328 327 324 322 320 318 320 321 320
87 91 78 81 71 38 44 49 55 68 73 72 101 83 7 21 25 23 16 11 24 28 41 84 47 34 301 290 321 294 304 314 282 264 270 294 332 342 40 67 63 66 94 108 46 65 270 272 328 256 270 265 257 267 276 278 271 269 275 279 273 215 179 207 238 243 230 240 256 270 284 287 289 296 301 305 311 317 318 318 318 317 318 319 320 322 324 326
103 105 83 83 89 83 81 69 62 65 59 48 71 66 24 37 44 23 323 328 18 18 16 10 4 8 282 249 282 288 310 318 296 290 270 319 316 315 0 53 78 66 55 57 1 73 203 253 167 214 285 287 267 259 268 266 270 274 265 264 269 257 227 225 245 250 237 242 255 269 281 285 285 287 291 300 308 310 310 313 317 319 319 319 320 323 327 329
104 105 100 96 84 60 55 51 50 65 47 27 48 45 9 36 32 2 348 7 16 356 7 359 335 337 266 242 252 253 261 253 264 263 199 80 325 304 285 345 93 58 348 89 50 13 209 267 86 157 290 299 286 254 262 243 241 271 280 279 272 267 258 244 250 253 238 247 261 269 275 277 278 290 303 307 310 313 317 323 323 320 319 319 322 327 330 329
102 105 106 100 74 18 29 39 30 64 42 18 35 12 3 33 2 333 345 27 40 339 338 332 315 308 221 250 242 252 279 272 257 261 262 265 276 266 253 1 19 335 331 121 159 316 240 264 50 38 305 294 280 316 305 290 260 253 278 293 286 269 266 249 233 212 204 242 270 272 274 285 306 322 319 314 315 318 322 327 323 316 317 320 323 327 328 326
99 100 97 97 84 9 21 28 20 57 73 356 11 355 356 14 345 312 298 338 0 327 324 316 301 296 267 261 268 290 302 295 280 279 279 269 265 269 271 272 270 262 226 138 114 338 70 268 309 8 303 283 296 324 311 304 304 273 247 294 301 294 282 270 252 208 196 219 269 281 287 307 320 322 317 315 317 318 322 325 317 311 315 320 323 325 324 326
Height
1539 1540 1540 1541 1541 1542 1542 1543 1544 1544 1544 1545 1545 1545 1545 1545 1545 1544 1544 1544 1543 1543 1542 1542 1541 1541 1541 1541 1541 1541 1540 1540 1540 1539 1539 1540 1540 1540 1540 1540 1540 1539 1539 1539 1539 1539 1538 1538 1538 1538 1537 1536 1536 1537 1537 1538 1537 1537 1538 1538 1542 1549 1550 1551 1554 1555 1554 1555 1560 1563 1564 1564 1564 1565 1566 1566 1565 1565 1565 1563 1563 1562 1561 1561 1561 1561 1560 1560
1540 1540 1541 1541 1542 1542 1543 1543 1544 1544 1545 1545 1545 1545 1545 1545 1545 1545 1544 1544 1543 1543 1542 1541 1540 1540 1540 1540 1541 1541 1541 1541 1540 1539 1540 1541 1541 1541 1541 1541 1540 1540 1540 1539 1539 1539 1539 1539 1538 1537 1537 1537 1538 1538 1539 1538 1538 1539 1539 1538 1543 1549 1551 1553 1554 1555 1556 1555 1559 1562 1563 1563 1563 1564 1565 1565 1563 1564 1563 1561 1561 1561 1559 1559 1559 1559 1559 1559
1540 1541 1541 1542 1542 1543 1543 1544 1544 1545 1545 1545 1545 1545 1545 1545 1545 1545 1545 1544 1543 1543 1542 1540 1539 1538 1539 1540 1541 1541 1541 1542 1541 1541 1542 1542 1542 1541 1541 1541 1540 1540 1539 1539 1539 1539 1539 1538 1538 1537 1537 1537 1539 1539 1539 1540 1540 1542 1540 1541 1548 1552 1553 1556 1556 1557 1557 1557 1559 1561 1563 1563 1563 1564 1564 1563 1562 1562 1560 1558 1559 1558 1557 1558 1557 1557 1557 1557
1541 1541 1542 1542 1543 1543 1544 1544 1545 1545 1545 1545 1545 1545 1545 1545 1545 1545 1544 1544 1543 1543 1542 1540 1538 1538 1539 1540 1541 1541 1541 1541 1542 1543 1544 1543 1542 1542 1541 1541 1540 1540 1539 1539 1539 1539 1539 1538 1538 1538 1537 1538 1540 1540 1541 1542 1542 1543 1544 1546 1551 1554 1554 1556 1557 1558 1558 1559 1560 1561 1563 1564 1563 1563 1563 1563 1561 1558 1556 1555 1555 1555 1555 1556 1556 1555 1556 1555
1541 1542 1542 1543 1543 1544 1544 1545 1545 1545 1545 1546 1545 1545 1545 1545 1545 1544 1544 1544 1544 1543 1542 1540 1539 1540 1540 1541 1541 1541 1541 1542 1545 1545 1544 1544 1543 1542 1542 1541 1541 1540 1540 1539 1539 1539 1539 1539 1538 1538 1538 1540 1541 1541 1544 1545 1543 1547 1553 1554 1555 1555 1555 1557 1558 1559 1559 1560 1561 1562 1563 1563 1563 1563 1562 1562 1558 1553 1552 1553 1553 1553 1554 1555 1554 1554 1553 1553
1542 1543 1543 1544 1544 1544 1545 1545 1546 1546 1546 1546 1546 1546 1545 1545 1544 1544 1544 1544 1544 1544 1542 1541 1541 1541 1541 1541 1541 1541 1541 1544 1547 1546 1545 1544 1543 1542 1542 1542 1541 1541 1540 1540 1540 1539 1539 1539 1539 1539 1540 1543 1544 1544 1546 1547 1544 1548 1556 1558 1557 1557 1556 1558 1559 1559 1560 1561 1561 1562 1562 1562 1562 1561 1560 1560 1554 1550 1550 1551 1552 1552 1553 1553 1552 1552 1551 1551
1543 1543 1544 1544 1545 1545 1545 1546 1546 1546 1546 1546 1546 1546 1545 1545 1544 1544 1544 1544 1545 1544 1543 1543 1542 1542 1542 1542 1542 1542 1542 1546 1547 1546 1545 1544 1543 1543 1542 1542 1541 1541 1541 1540 1540 1539 1539 1539 1539 1540 1541 1544 1546 1547 1548 1548 1546 1547 1554 1559 1558 1558 1558 1558 1560 1559 1560 1561 1561 1562 1562 1562 1562 1560 1559 1556 1551 1549 1550 1550 1551 1551 1551 1551 1550 1549 1549 1548
1543 1544 1545 1545 1545 1546 1546 1546 1546 1547 1547 1547 1547 1546 1546 1546 1545 1544 1544 1544 1545 1544 1544 1544 1544 1543 1543 1543 1543 1542 1544 1547 1547 1546 1545 1544 1543 1543 1542 1542 1541 1541 1541 1540 1540 1540 1540 1540 1539 1540 1543 1545 1547 1548 1548 1547 1549 1551 1556 1560 1559 1560 1559 1560 1560 1560 1561 1562 1562 1563 1562 1562 1561 1561 1558 1551 1548 1548 1549 1549 1549 1549 1549 1549 1548 1547 1547 1546
1544 1545 1545 1546 1546 1546 1546 1547 1547 1547 1547 1547 1547 1547 1547 1546 1546 1545 1545 1545 1544 1544 1545 1545 1545 1544 1544 1544 1543 1543 1548 1549 1547 1546 1545 1544 1543 1543 1542 1542 1541 1541 1540 1540 1540 1540 1540 1540 1540 1540 1542 1546 1548 1549 1549 1547 1550 1556 1558 1560 1560 1561 1561 1561 1561 1561 1562 1562 1563 1563 1562 1561 1561 1561 1554 1546 1545 1546 1546 1547 1546 1547 1546 1545 1545 1544 1544 1543
1545 1546 1546 1546 1547 1547 1547 1547 1547 1548 1548 1548 1548 1548 1548 1547 1547 1546 1546 1545 1544 1544 1545 1545 1545 1544 1544 1544 1542 1546 1552 1550 1548 1547 1546 1545 1544 1543 1542 1542 1541 1541 1541 1541 1540 1540 1541 1540 1540 1540 1541 1546 1549 1550 1550 1549 1554 1559 1560 1561 1562 1562 1562 1562 1562 1563 1563 1563 1564 1562 1561 1559 1560 1561 1551 1542 1543 1544 1544 1544 1544 1544 1543 1542 1542 1541 1541 1540
1546 1547 1547 1547 1547 1547 1548 1548 1548 1548 1549 1549 1549 1548 1548 1548 1548 1547 1547 1546 1544 1544 1545 1545 1545 1545 1545 1544 1543 1550 1554 1551 1550 1548 1547 1546 1545 1544 1543 1542 1541 1541 1541 1541 1541 1541 1541 1541 1541 1541 1542 1546 1550 1552 1553 1555 1558 1560 1559 1561 1563 1563 1563 1563 1563 1563 1563 1563 1563 1562 1561 1558 1560 1559 1547 1541 1542 1542 1542 1542 1542 1541 1540 1539 1539 1538 1538 1536
1547 1547 1547 1548 1548 1548 1548 1549 1549 1549 1549 1549 1549 1550 1549 1549 1549 1548 1548 1548 1546 1545 1546 1546 1545 1546 1544 1543 1547 1553 1554 1552 1551 1549 1548 1547 1545 1545 1544 1542 1542 1542 1542 1542 1541 1541 1541 1542 1541 1541 1544 1548 1552 1554 1556 1559 1559 1560 1560 1561 1563 1564 1563 1563 1563 1563 1563 1562 1562 1563 1558 1551 1552 1550 1540 1539 1541 1540 1540 1540 1539 1539 1537 1537 1537 1536 1535 1533
1548 1548 1548 1548 1548 1549 1549 1550 1550 1550 1550 1550 1551 1550 1550 1550 1550 1550 1549 1549 1548 1547 1547 1547 1547 1546 1543 1547 1553 1555 1554 1554 1553 1551 1549 1547 1546 1546 1545 1545 1544 1544 1544 1543 1542 1543 1543 1543 1542 1542 1546 1549 1553 1556 1557 1560 1560 1560 1562 1561 1562 1561 1560 1561 1563 1563 1563 1562 1562 1564 1554 1539 1539 1540 1536 1539 1539 1538 1539 1537 1537 1536 1535 1535 1534 1533 1532 1531
1548 1548 1549 1549 1549 1549 1550 1551 1551 1551 1551 1551 1551 1551 1551 1551 1551 1551 1550 1550 1550 1549 1548 1548 1548 1546 1545 1552 1558 1556 1556 1556 1554 1553 1550 1549 1549 1548 1547 1547 1546 1545 1545 1544 1544 1544 1544 1544 1543 1544 1548 1550 1554 1557 1558 1561 1560 1561 1563 1562 1563 1559 1556 1560 1562 1562 1562 1561 1561 1564 1555 1538 1532 1535 1536 1537 1537 1537 1537 1535 1535 1534 1533 1532 1531 1530 1528 1528
1548 1549 1549 1549 1550 1550 1551 1551 1551 1552 1552 1552 1552 1552 1552 1552 1552 1552 1551 1551 1551 1550 1550 1549 1549 1548 1548 1555 1558 1557 1557 1556 1555 1554 1552 1552 1551 1550 1550 1549 1548 1547 1546 1546 1545 1546 1546 1546 1545 1548 1553 1553 1555 1557 1558 1560 1561 1563 1562 1559 1563 1560 1555 1558 1561 1561 1561 1560 1561 1561 1554 1539 1532 1533 1534 1535 1535 1535 1534 1533 1533 1531 1531 1530 1528 1528 1525 1524
1549 1549 1549 1549 1550 1550 1551 1552 1552 1552 1553 1553 1553 1553 1553 1552 1553 1553 1552 1552 1551 1552 1551 1550 1550 1549 1550 1556 1558 1557 1558 1557 1556 1556 1555 1554 1553 1553 1552 1551 1551 1550 1549 1549 1548 1549 1549 1548 1550 1553 1556 1557 1556 1556 1556 1559 1559 1562 1561 1556 1560 1562 1556 1556 1559 1562 1561 1560 1561 1559 1552 1541 1534 1532 1532 1533 1533 1533 1533 1531 1530 1529 1528 1527 1525 1524 1522 1520
1549 1549 1549 1550 1550 1551 1551 1552 1553 1553 1553 1554 1554 1554 1554 1554 1554 1554 1554 1553 1553 1553 1552 1551 1551 1550 1552 1557 1559 1558 1558 1558 1557 1557 1556 1556 1555 1554 1553 1553 1553 1552 1551 1551 1550 1551 1550 1551 1553 1556 1558 1559 1559 1557 1555 1556 1555 1558 1560 1557 1560 1564 1559 1554 1556 1561 1562 1561 1558 1557 1554 1543 1533 1531 1531 1531 1532 1532 1531 1528 1527 1526 1525 1523 1522 1520 1519 1517
1550 1550 1550 1550 1551 1551 1552 1553 1553 1554 1554 1554 1554 1554 1554 1555 1555 1555 1555 1554 1554 1554 1553 1552 1550 1551 1557 1559 1559 1559 1559 1558 1558 1557 1556 1556 1555 1554 1554 1554 1553 1553 1553 1552 1552 1552 1552 1554 1555 1556 1558 1559 1560 1559 1555 1555 1555 1555 1556 1555 1558 1561 1560 1557 1556 1558 1561 1560 1557 1555 1552 1541 1531 1529 1528 1528 1529 1529 1528 1526 1524 1523 1521 1520 1519 1517 1516 1515
1551 1551 1550 1551 1551 1552 1552 1553 1554 1554 1554 1554 1555 1555 1555 1555 1555 1555 1555 1555 1554 1554 1556 1555 1552 1554 1560 1561 1560 1560 1559 1558 1558 1557 1557 1556 1555 1555 1554 1554 1553 1553 1553 1553 1554 1555 1554 1556 1556 1557 1559 1562 1565 1565 1561 1561 1561 1559 1559 1559 1558 1558 1557 1555 1556 1559 1561 1560 1555 1551 1547 1538 1530 1526 1523 1524 1526 1526 1524 1523 1522 1519 1518 1517 1516 1515 1514 1513
1552 1552 1551 1551 1552 1552 1553 1554 1554 1554 1555 1555 1555 1555 1555 1555 1556 1558 1557 1556 1557 1558 1560 1559 1557 1558 1561 1561 1561 1560 1559 1559 1558 1558 1557 1556 1556 1555 1555 1554 1554 1554 1555 1557 1558 1558 1557 1558 1560 1562 1565 1568 1570 1571 1570 1568 1567 1564 1563 1562 1561 1560 1555 1551 1556 1560 1562 1558 1547 1544 1543 1536 1530 1524 1520 1520 1522 1522 1520 1519 1518 1516 1515 1514 1513 1512 1511 1510
1553 1553 1553 1552 1553 1553 1554 1554 1555 1555 1556 1556 1556 1556 1556 1555 1556 1559 1559 1559 1561 1561 1562 1562 1561 1562 1562 1562 1562 1561 1560 1560 1559 1558 1557 1556 1556 1555 1556 1555 1555 1556 1560 1562 1560 1559 1558 1559 1565 1569 1569 1571 1572 1573 1573 1571 1569 1565 1563 1562 1560 1560 1555 1552 1557 1559 1561 1559 1545 1543 1544 1535 1527 1522 1517 1517 1517 1516 1514 1513 1513 1511 1511 1511 1510 1510 1509 1508
1553 1553 1553 1554 1554 1554 1554 1555 1555 1556 1556 1556 1556 1556 1556 1556 1556 1558 1558 1561 1564 1563 1563 1564 1563 1563 1563 1563 1562 1561 1561 1560 1559 1558 1557 1557 1555 1556 1557 1557 1557 1559 1562 1562 1559 1559 1559 1561 1568 1571 1571 1573 1573 1574 1574 1571 1570 1565 1562 1562 1557 1557 1555 1552 1558 1560 1560 1558 1545 1542 1543 1529 1521 1518 1512 1511 1510 1508 1508 1508 1509 1508 1508 1508 1507 1507 1506 1505
1554 1554 1554 1555 1555 1555 1555 1556 1556 1557 1557 1557 1557 1557 1557 1558 1558 1558 1557 1560 1564 1565 1565 1565 1564 1564 1564 1563 1562 1562 1561 1561 1561 1559 1559 1558 1557 1557 1558 1559 1560 1561 1562 1561 1559 1557 1558 1563 1570 1572 1572 1572 1573 1574 1574 1569 1566 1563 1561 1559 1555 1558 1559 1551 1555 1560 1559 1557 1549 1548 1545 1525 1513 1509 1504 1506 1505 1504 1504 1504 1504 1504 1504 1505 1505 1505 1504 1503
1554 1554 1554 1555 1556 1556 1557 1557 1557 1558 1558 1558 1559 1559 1559 1559 1559 1559 1558 1559 1563 1566 1566 1566 1565 1565 1564 1564 1564 1563 1562 1562 1563 1561 1560 1559 1559 1559 1559 1561 1562 1562 1565 1565 1562 1559 1562 1569 1572 1573 1573 1573 1573 1572 1572 1566 1560 1560 1561 1560 1556 1558 1561 1554 1555 1558 1554 1554 1556 1552 1538 1514 1505 1505 1500 1502 1504 1502 1502 1502 1500 1501 1501 1502 1502 1502 1501 1500
1554 1554 1555 1555 1556 1557 1557 1558 1558 1558 1559 1559 1560 1560 1560 1560 1560 1559 1559 1560 1564 1566 1566 1566 1566 1565 1566 1565 1564 1564 1563 1563 1564 1563 1562 1560 1560 1560 1561 1563 1561 1563 1567 1568 1564 1562 1566 1572 1573 1573 1574 1574 1572 1568 1568 1564 1557 1557 1559 1560 1558 1558 1561 1558 1558 1557 1546 1544 1552 1552 1535 1509 1500 1504 1500 1498 1501 1500 1500 1500 1499 1498 1499 1500 1499 1499 1499 1498
1553 1554 1555 1555 1556 1557 1557 1558 1558 1559 1559 1559 1560 1560 1560 1560 1559 1560 1559 1561 1566 1569 1567 1567 1567 1567 1567 1566 1564 1564 1564 1564 1565 1564 1563 1562 1561 1561 1562 1563 1563 1565 1568 1569 1567 1566 1569 1574 1574 1574 1573 1573 1570 1565 1566 1567 1558 1555 1559 1563 1563 1562 1563 1561 1561 1557 1544 1538 1548 1554 1544 1522 1503 1497 1499 1501 1502 1500 1498 1498 1497 1497 1497 1497 1497 1497 1496 1496
1551 1552 1554 1554 1556 1556 1557 1558 1557 1558 1559 1558 1559 1559 1560 1560 1559 1560 1559 1564 1571 1572 1570 1568 1568 1569 1568 1567 1566 1564 1564 1565 1565 1564 1564 1563 1562 1562 1562 1564 1565 1566 1569 1569 1565 1565 1570 1573 1574 1574 1573 1571 1566 1562 1565 1568 1560 1556 1564 1567 1565 1564 1564 1563 1563 1557 1550 1546 1549 1551 1547 1537 1518 1501 1502 1507 1503 1497 1495 1494 1494 1494 1495 1495 1495 1495 1495 1495
1549 1551 1552 1554 1555 1556 1557 1557 1557 1558 1557 1558 1559 1559 1560 1560 1560 1560 1560 1570 1577 1573 1571 1571 1569 1570 1569 1568 1567 1565 1566 1566 1564 1565 1565 1564 1563 1563 1563 1565 1566 1566 1570 1568 1561 1563 1569 1570 1571 1572 1572 1568 1564 1564 1567 1567 1562 1561 1569 1569 1566 1567 1564 1564 1563 1556 1557 1554 1542 1541 1545 1540 1521 1501 1501 1507 1502 1497 1494 1492 1492 1492 1493 1494 1493 1494 1493 1493
1548 1550 1551 1553 1554 1555 1556 1556 1557 1557 1557 1558 1558 1559 1560 1559 1560 1560 1560 1573 1578 1573 1573 1572 1569 1570 1569 1569 1569 1567 1567 1566 1566 1566 1565 1565 1564 1563 1563 1565 1567 1567 1569 1568 1563 1565 1568 1569 1570 1569 1568 1565 1565 1569 1570 1568 1566 1567 1571 1569 1568 1569 1564 1564 1561 1553 1558 1553 1537 1539 1546 1538 1517 1495 1496 1504 1500 1498 1495 1492 1493 1492 1493 1493 1493 1493 1493 1492
1548 1550 1551 1552 1553 1555 1556 1556 1557 1557 1557 1558 1558 1560 1560 1560 1561 1561 1566 1576 1578 1575 1575 1572 1572 1573 1571 1569 1569 1568 1569 1568 1568 1567 1565 1566 1565 1564 1565 1566 1567 1567 1569 1569 1567 1568 1569 1570 1570 1570 1568 1567 1569 1571 1571 1570 1570 1570 1570 1566 1563 1564 1563 1562 1559 1555 1554 1542 1537 1546 1548 1543 1527 1500 1491 1498 1498 1496 1496 1494 1494 1493 1493 1493 1492 1492 1491 1490
1549 1550 1551 1552 1553 1555 1555 1556 1556 1557 1557 1558 1559 1559 1560 1561 1560 1564 1574 1580 1578 1576 1575 1574 1577 1577 1575 1574 1572 1571 1571 1570 1570 1569 1567 1568 1567 1566 1566 1566 1567 1565 1563 1565 1566 1566 1569 1568 1568 1570 1569 1569 1570 1569 1571 1572 1572 1571 1568 1563 1556 1552 1554 1553 1550 1554 1546 1531 1540 1555 1552 1550 1538 1507 1491 1495 1498 1498 1499 1498 1495 1494 1493 1492 1491 1491 1489 1489
1549 1550 1551 1552 1553 1554 1555 1556 1556 1556 1557 1558 1558 1559 1560 1562 1565 1574 1582 1580 1578 1579 1579 1579 1580 1579 1580 1579 1577 1577 1576 1573 1573 1573 1574 1574 1574 1575 1575 1575 1574 1567 1561 1565 1566 1561 1562 1566 1568 1569 1569 1570 1569 1564 1566 1569 1570 1569 1564 1559 1551 1543 1545 1544 1539 1543 1537 1530 1546 1558 1552 1546 1529 1505 1496 1495 1495 1497 1498 1497 1496 1494 1493 1492 1491 1490 1488 1487
1550 1551 1551 1552 1553 1554 1555 1556 1556 1556 1557 1557 1558 1559 1559 1562 1574 1587 1587 1579 1580 1584 1584 1584 1583 1582 1582 1577 1577 1582 1579 1576 1577 1577 1579 1578 1576 1580 1583 1584 1583 1575 1568 1571 1571 1562 1559 1563 1568 1568 1567 1570 1569 1563 1559 1561 1564 1564 1559 1556 1551 1548 1553 1550 1542 1542 1537 1534 1549 1560 1554 1538 1516 1499 1497 1495 1493 1494 1495 1494 1493 1492 1492 1491 1490 1490 1488 1487
1551 1551 1552 1553 1554 1555 1555 1556 1556 1557 1557 1558 1559 1559 1561 1568 1581 1590 1586 1583 1586 1587 1587 1587 1584 1582 1581 1578 1581 1584 1579 1578 1580 1579 1578 1576 1574 1577 1581 1583 1585 1582 1577 1575 1576 1575 1568 1562 1564 1567 1567 1569 1570 1567 1565 1563 1561 1562 1563 1561 1555 1551 1553 1550 1543 1541 1538 1537 1548 1558 1549 1527 1509 1497 1492 1492 1492 1492 1492 1491 1491 1490 1489 1489 1488 1488 1487 1485
1552 1552 1553 1554 1554 1555 1556 1556 1557 1557 1557 1559 1559 1561 1566 1576 1586 1587 1585 1587 1589 1587 1587 1588 1585 1579 1578 1581 1586 1587 1583 1580 1581 1580 1577 1576 1577 1580 1582 1585 1586 1586 1580 1575 1579 1583 1574 1564 1566 1570 1569 1570 1570 1569 1571 1568 1561 1563 1567 1562 1555 1553 1550 1552 1555 1557 1558 1554 1547 1547 1537 1516 1506 1496 1488 1491 1491 1489 1491 1489 1490 1489 1488 1488 1487 1486 1486 1484
1553 1553 1553 1554 1555 1555 1556 1557 1557 1558 1559 1559 1560 1567 1578 1585 1587 1587 1589 1591 1590 1590 1587 1584 1583 1579 1575 1579 1584 1587 1587 1584 1582 1579 1578 1581 1584 1586 1587 1589 1590 1590 1585 1581 1582 1583 1575 1566 1567 1571 1570 1571 1571 1570 1572 1568 1561 1563 1563 1556 1557 1562 1556 1553 1561 1569 1573 1560 1537 1530 1526 1513 1506 1495 1486 1490 1489 1487 1491 1489 1489 1490 1488 1488 1487 1485 1484 1482
1555 1555 1554 1555 1555 1556 1557 1558 1557 1558 1559 1558 1563 1577 1588 1591 1591 1593 1594 1593 1593 1594 1587 1581 1584 1585 1582 1581 1581 1584 1586 1584 1583 1579 1577 1582 1585 1587 1590 1591 1592 1592 1590 1588 1586 1586 1584 1572 1566 1571 1570 1569 1571 1570 1569 1570 1566 1562 1560 1558 1561 1564 1559 1555 1558 1558 1557 1549 1531 1526 1526 1520 1515 1500 1487 1489 1489 1487 1489 1488 1489 1490 1488 1488 1487 1484 1482 1479
1556 1556 1555 1556 1556 1557 1557 1557 1558 1560 1559 1562 1573 1586 1592 1594 1595 1596 1596 1595 1595 1595 1589 1584 1589 1593 1591 1587 1586 1589 1588 1581 1582 1583 1581 1583 1585 1588 1591 1590 1590 1591 1590 1589 1584 1585 1589 1576 1565 1570 1570 1567 1569 1569 1564 1566 1568 1563 1561 1563 1561 1557 1553 1554 1556 1551 1548 1546 1534 1526 1527 1522 1515 1502 1489 1489 1490 1488 1488 1488 1489 1490 1489 1488 1486 1483 1480 1476
1557 1556 1557 1558 1557 1557 1558 1558 1560 1560 1558 1567 1582 1590 1594 1596 1598 1597 1596 1596 1595 1593 1591 1592 1594 1594 1594 1594 1592 1593 1592 1587 1586 1587 1585 1585 1586 1586 1589 1588 1587 1588 1588 1589 1586 1584 1587 1579 1567 1565 1569 1567 1565 1564 1559 1558 1564 1566 1563 1563 1563 1560 1556 1553 1556 1553 1547 1546 1539 1531 1526 1511 1499 1497 1493 1491 1490 1489 1489 1489 1489 1490 1489 1488 1486 1482 1478 1473
1557 1557 1559 1561 1559 1559 1560 1560 1560 1561 1566 1579 1589 1593 1596 1598 1597 1596 1595 1595 1594 1592 1592 1595 1595 1592 1593 1596 1595 1593 1594 1593 1591 1588 1586 1587 1585 1583 1588 1589 1587 1589 1590 1589 1589 1586 1585 1582 1571 1562 1565 1565 1557 1556 1555 1553 1557 1560 1559 1559 1560 1562 1564 1559 1557 1556 1549 1542 1541 1542 1532 1504 1487 1493 1495 1491 1491 1491 1493 1492 1489 1488 1487 1486 1484 1481 1476 1472
1557 1559 1562 1562 1562 1562 1561 1562 1566 1571 1580 1590 1593 1594 1597 1596 1595 1596 1595 1594 1594 1593 1593 1594 1593 1591 1592 1593 1594 1595 1595 1593 1592 1589 1587 1588 1584 1582 1589 1592 1590 1592 1591 1588 1589 1588 1586 1583 1576 1568 1564 1558 1552 1557 1562 1559 1559 1558 1554 1555 1553 1556 1560 1554 1551 1558 1560 1553 1546 1547 1539 1509 1488 1493 1495 1493 1495 1495 1495 1495 1491 1488 1487 1484 1482 1478 1475 1471
1558 1562 1565 1564 1563 1563 1562 1568 1577 1581 1585 1590 1592 1594 1595 1595 1595 1596 1595 1596 1596 1594 1595 1595 1594 1595 1595 1593 1594 1596 1595 1592 1591 1590 1588 1588 1587 1586 1590 1592 1591 1591 1590 1587 1588 1590 1589 1586 1583 1575 1564 1557 1558 1565 1567 1566 1567 1564 1560 1559 1557 1557 1557 1550 1547 1554 1562 1562 1558 1558 1550 1516 1490 1493 1497 1494 1497 1496 1495 1496 1492 1489 1486 1483 1480 1476 1472 1468
1561 1565 1567 1564 1565 1564 1563 1573 1584 1586 1589 1593 1594 1595 1596 1596 1597 1597 1596 1596 1596 1595 1595 1596 1596 1595 1595 1596 1595 1595 1594 1591 1590 1589 1588 1589 1589 1589 1590 1591 1590 1590 1590 1588 1588 1591 1589 1585 1583 1572 1556 1554 1562 1567 1568 1569 1570 1565 1561 1563 1564 1562 1561 1559 1559 1560 1556 1554 1553 1556 1549 1518 1491 1493 1497 1495 1496 1495 1493 1494 1492 1488 1485 1480 1477 1473 1468 1465
1563 1566 1567 1565 1566 1564 1565 1574 1583 1588 1593 1595 1595 1596 1597 1597 1597 1597 1597 1596 1596 1596 1595 1596 1597 1595 1596 1598 1597 1595 1594 1590 1588 1589 1589 1589 1589 1590 1591 1590 1590 1591 1590 1589 1590 1591 1586 1581 1581 1574 1561 1556 1557 1557 1560 1564 1566 1560 1556 1564 1567 1566 1569 1568 1566 1565 1557 1545 1542 1545 1539 1515 1494 1493 1495 1494 1495 1492 1490 1491 1490 1487 1483 1479 1474 1469 1465 1462
1564 1567 1569 1569 1567 1566 1569 1577 1581 1586 1593 1594 1594 1597 1597 1597 1598 1598 1598 1598 1597 1598 1596 1596 1598 1597 1598 1599 1596 1597 1596 1591 1588 1590 1591 1589 1588 1590 1591 1591 1592 1592 1591 1592 1592 1591 1587 1584 1582 1579 1575 1570 1563 1558 1556 1557 1559 1555 1553 1562 1568 1568 1569 1564 1558 1559 1554 1545 1544 1541 1529 1511 1498 1495 1494 1493 1493 1490 1487 1487 1487 1486 1483 1478 1472 1467 1462 1459
1565 1569 1573 1574 1571 1570 1575 1581 1582 1584 1590 1590 1592 1597 1598 1597 1599 1599 1599 1599 1598 1598 1598 1598 1598 1597 1597 1597 1594 1595 1596 1595 1593 1592 1590 1587 1587 1590 1592 1591 1592 1593 1592 1593 1592 1591 1591 1589 1585 1580 1578 1575 1568 1561 1559 1560 1560 1555 1550 1555 1562 1567 1568 1564 1560 1555 1546 1544 1543 1531 1520 1514 1506 1499 1496 1493 1492 1489 1486 1485 1484 1483 1479 1475 1470 1465 1461 1458
1567 1574 1578 1577 1576 1577 1580 1584 1584 1585 1588 1588 1592 1599 1599 1598 1599 1599 1599 1599 1599 1599 1599 1598 1598 1597 1596 1596 1595 1593 1593 1595 1595 1592 1590 1588 1588 1591 1593 1592 1593 1593 1592 1593 1592 1592 1590 1586 1587 1586 1578 1574 1571 1564 1561 1563 1562 1557 1552 1552 1556 1562 1566 1564 1557 1546 1540 1545 1538 1518 1513 1516 1508 1499 1497 1495 1492 1490 1488 1487 1485 1481 1476 1472 1467 1462 1459 1456
1570 1577 1582 1579 1581 1585 1586 1587 1589 1589 1589 1590 1596 1601 1600 1599 1600 1600 1599 1600 1599 1599 1598 1597 1598 1599 1598 1598 1596 1593 1592 1592 1591 1589 1589 1591 1592 1591 1590 1593 1594 1592 1592 1593 1592 1592 1589 1584 1588 1590 1579 1573 1573 1567 1562 1562 1561 1557 1556 1555 1554 1558 1561 1558 1550 1540 1540 1544 1532 1515 1512 1513 1506 1501 1500 1497 1495 1494 1492 1490 1487 1481 1476 1471 1466 1462 1458 1454
1573 1577 1582 1582 1584 1590 1591 1591 1591 1591 1591 1593 1597 1602 1601 1600 1601 1602 1602 1601 1599 1600 1599 1597 1598 1599 1600 1600 1597 1594 1593 1592 1590 1589 1590 1591 1592 1590 1588 1591 1593 1593 1593 1592 1591 1592 1588 1584 1589 1592 1581 1569 1566 1564 1562 1563 1562 1558 1554 1552 1551 1550 1550 1550 1544 1539 1540 1539 1528 1520 1519 1515 1507 1503 1502 1499 1497 1495 1493 1491 1487 1481 1476 1472 1467 1463 1459 1455
1574 1577 1581 1583 1586 1591 1593 1593 1593 1592 1593 1595 1598 1602 1604 1602 1602 1603 1603 1601 1599 1600 1600 1598 1599 1600 1599 1600 1598 1594 1593 1593 1592 1592 1592 1593 1593 1592 1590 1589 1591 1594 1593 1591 1593 1592 1587 1584 1589 1591 1579 1563 1558 1560 1561 1560 1559 1556 1549 1546 1548 1546 1544 1544 1542 1541 1543 1539 1531 1528 1526 1518 1508 1504 1503 1500 1496 1492 1491 1489 1485 1480 1475 1471 1468 1465 1460 1456
1576 1578 1580 1581 1588 1595 1594 1595 1595 1594 1597 1600 1601 1604 1605 1604 1604 1604 1604 1603 1602 1602 1601 1600 1600 1600 1599 1599 1597 1594 1594 1594 1593 1592 1593 1594 1593 1592 1592 1591 1592 1593 1591 1592 1593 1591 1588 1587 1587 1588 1579 1561 1552 1555 1555 1551 1550 1551 1547 1543 1542 1541 1537 1536 1536 1537 1538 1534 1529 1528 1524 1513 1505 1503 1501 1497 1492 1489 1488 1487 1484 1478 1473 1470 1468 1465 1460 1455
1578 1581 1581 1581 1589 1598 1598 1597 1597 1596 1601 1607 1606 1606 1606 1605 1606 1605 1602 1603 1604 1603 1602 1602 1600 1599 1598 1596 1595 1594 1593 1593 1592 1592 1592 1593 1593 1593 1592 1592 1592 1590 1590 1592 1593 1593 1593 1588 1585 1588 1580 1559 1550 1554 1553 1546 1540 1539 1540 1538 1535 1533 1530 1527 1526 1527 1529 1528 1525 1520 1513 1506 1503 1504 1500 1494 1489 1485 1484 1484 1482 1476 1472 1469 1467 1464 1459 1454